K3TOW Weather Reports


time (UTC)temp
C
wind
direction
speed
KPH
gust
KPH
rain 1hr
cm
rain 24hr
cm
rain mn
cm
humidity
%
barometer
mb
20260507031003 10 0 0.0 0.0 0.00 0.99 0.99 93 1008.5
20260507030003 10 0 0.0 0.0 0.00 0.99 0.99 93 1008.4
20260507025213 10 0 0.0 0.0 0.00 0.99 0.99 93 1008.9
20260507024003 10 0 0.0 0.0 0.00 0.99 0.99 93 1008.8
20260507023003 10 0 0.0 0.0 0.00 0.99 0.99 93 1009.2
20260507022003 10 0 0.0 0.0 0.00 0.99 0.99 93 1009.3
20260507021003 10 0 0.0 0.0 0.00 0.99 0.99 92 1009.4
20260507020003 10 0 0.0 0.0 0.00 0.99 0.99 92 1009.2
20260507015003 10 0 0.0 0.0 0.00 0.99 0.99 91 1009.6
20260507014003 10 0 0.0 0.0 0.00 0.99 0.99 91 1009.4
20260507013214 10 0 0.0 0.0 0.00 0.99 0.99 91 1009.6
20260507012003 10 0 0.0 0.0 0.00 0.99 0.99 90 1009.7
20260507011003 10 0 0.0 0.0 0.00 0.99 0.99 90 1009.1
20260507010004 10 0 0.0 0.0 0.00 0.99 0.99 91 1009.1
20260507005214 10 0 0.0 0.0 0.00 0.99 0.99 91 1009.1
20260507004003 10 0 0.0 0.0 0.00 0.99 0.99 90 1008.9
20260507003003 10 0 0.0 0.0 0.00 0.99 0.99 90 1008.7
20260507002214 10 0 0.0 0.0 0.00 0.99 0.99 90 1008.5
20260507001003 11 0 0.0 0.0 0.00 0.99 0.99 90 1008.3
20260507000003 11 193 0.0 3.2 0.00 0.99 0.99 89 1008.2
20260506235003 11 184 1.6 8.0 0.00 0.99 0.99 88 1007.8
20260506234214 11 252 1.6 8.0 0.00 0.99 0.99 88 1007.8
20260506233003 11 237 1.6 8.0 0.00 0.99 0.99 89 1007.7
20260506232003 11 310 1.6 6.4 0.03 0.99 0.99 89 1007.7
20260506231003 11 290 1.6 6.4 0.03 0.99 0.99 89 1007.5
20260506230003 11 264 1.6 6.4 0.03 0.99 0.99 89 1007.3
20260506225003 11 228 3.2 8.0 0.03 0.99 0.99 89 1007.1
20260506224213 12 302 3.2 8.0 0.03 0.99 0.99 89 1007.0
20260506223003 13 242 1.6 14.5 0.03 0.99 0.99 89 1006.7
20260506222003 13 292 1.6 11.3 0.00 0.97 0.97 88 1006.4
20260506221213 13 264 3.2 14.5 0.00 0.97 0.97 87 1006.1
20260506220003 15 302 6.4 17.7 0.00 0.97 0.97 85 1005.4
20260506215213 16 302 6.4 17.7 0.00 0.97 0.97 86 1005.1
20260506214003 17 25 1.6 9.7 0.00 0.97 0.97 91 1004.6
20260506213003 17 57 1.6 4.8 0.00 0.97 0.97 91 1004.4
20260506212003 17 2 1.6 8.0 0.00 0.97 0.97 90 1004.2
20260506211003 17 3 1.6 3.2 0.00 0.97 0.97 91 1004.0
20260506210003 17 16 0.0 6.4 0.00 0.97 0.97 91 1003.9
20260506205003 17 50 1.6 4.8 0.00 0.97 0.97 92 1003.8
20260506204003 17 48 1.6 6.4 0.00 0.97 0.97 92 1003.8
20260506203003 17 16 3.2 8.0 0.00 0.97 0.97 92 1003.7
20260506202003 17 74 1.6 11.3 0.00 0.97 0.97 92 1003.7
20260506201003 17 19 1.6 8.0 0.00 0.97 0.97 92 1003.7
20260506200003 17 9 1.6 6.4 0.00 0.97 0.97 93 1003.7
20260506195003 17 0 0.0 0.0 0.00 0.97 0.97 94 1003.9
20260506194003 17 0 0.0 0.0 0.00 0.97 0.97 94 1003.9
20260506193003 17 0 0.0 0.0 0.00 0.97 0.97 94 1004.0
20260506192003 17 344 0.0 4.8 0.00 0.97 0.97 94 1004.0
20260506191003 17 7 1.6 12.9 0.00 0.97 0.97 94 1004.2
20260506190214 17 57 1.6 9.7 0.00 0.97 0.97 94 1004.1
20260506185214 16 357 1.6 9.7 0.00 0.97 0.97 95 1004.1
20260506184003 16 18 1.6 4.8 0.03 0.97 0.97 95 1004.1
20260506183003 16 15 1.6 9.7 0.03 0.97 0.97 95 1004.4
20260506182003 16 8 1.6 6.4 0.03 0.97 0.97 95 1004.5
20260506181003 16 0 0.0 0.0 0.05 0.97 0.97 95 1004.5
20260506180004 16 0 0.0 0.0 0.08 0.97 0.97 96 1004.5
20260506175003 16 40 0.0 6.4 0.08 0.97 0.97 95 1004.5
20260506174003 16 0 0.0 0.0 0.05 0.94 0.94 95 1004.5
20260506173213 16 0 0.0 0.0 0.05 0.94 0.94 95 1004.6
20260506172003 16 0 0.0 0.0 0.08 0.94 0.94 96 1004.6
20260506171003 15 0 0.0 0.0 0.08 0.91 0.91 95 1004.6
20260506170003 15 0 0.0 0.0 0.08 0.89 0.89 95 1004.6
20260506165003 15 0 0.0 0.0 0.08 0.89 0.89 95 1004.7
20260506164003 15 0 0.0 0.0 0.10 0.89 0.89 95 1004.6
20260506163003 15 0 0.0 0.0 0.15 0.89 0.89 94 1004.6
20260506162003 16 0 0.0 0.0 0.15 0.86 0.86 95 1004.6
20260506161213 16 0 0.0 0.0 0.20 0.86 0.86 95 1004.6
20260506160003 15 0 0.0 0.0 0.23 0.81 0.81 95 1004.5
20260506155003 15 0 0.0 0.0 0.25 0.81 0.81 95 1004.6
20260506154003 15 0 0.0 0.0 0.28 0.79 0.79 95 1004.6
20260506153003 15 0 0.0 0.0 0.25 0.74 0.74 94 1004.9
20260506152003 15 5 0.0 12.9 0.28 0.71 0.71 94 1004.9
20260506151214 15 354 0.0 12.9 0.25 0.66 0.66 94 1005.1
20260506150214 15 0 0.0 0.0 0.20 0.58 0.58 94 1005.1
20260506145003 16 0 0.0 0.0 0.25 0.56 0.56 94 1004.9
20260506144003 16 0 0.0 0.0 0.23 0.51 0.51 94 1004.9
20260506143003 15 0 0.0 0.0 0.23 0.48 0.48 94 1004.9
20260506142003 15 0 0.0 0.0 0.23 0.43 0.43 94 1004.9
20260506141003 15 0 0.0 0.0 0.23 0.41 0.41 94 1005.1
20260506140003 15 0 0.0 0.0 0.20 0.36 0.36 94 1005.1
20260506135003 15 0 0.0 0.0 0.20 0.30 0.30 94 1005.0
20260506134003 15 0 0.0 0.0 0.20 0.28 0.28 94 1005.2
20260506133003 15 0 0.0 0.0 0.23 0.25 0.25 93 1005.5
20260506132003 15 0 0.0 0.0 0.18 0.20 0.20 93 1005.5
20260506131214 15 0 0.0 0.0 0.15 0.18 0.18 93 1005.5
20260506130004 15 0 0.0 0.0 0.15 0.15 0.15 92 1005.7
20260506125003 16 0 0.0 0.0 0.10 0.10 0.10 91 1005.8
20260506124213 16 0 0.0 0.0 0.08 0.08 0.08 90 1005.9
20260506123003 16 0 0.0 0.0 0.03 0.03 0.03 90 1005.7
20260506122003 16 0 0.0 0.0 0.03 0.03 0.03 89 1005.4
20260506121003 17 0 0.0 0.0 0.03 0.03 0.03 87 1005.3
20260506120004 17 0 0.0 0.0 0.00 0.00 0.00 84 1005.1
20260506115003 17 107 0.0 1.6 0.00 0.00 0.00 82 1005.1
20260506114003 17 107 0.0 3.2 0.00 0.00 0.00 79 1005.1
20260506113003 17 96 0.0 4.8 0.00 0.00 0.00 79 1005.0
20260506112003 17 0 0.0 0.0 0.00 0.00 0.00 77 1005.0
20260506111003 17 0 0.0 0.0 0.00 0.00 0.00 76 1004.8
20260506110003 17 0 0.0 0.0 0.00 0.00 0.00 75 1004.7
20260506105003 17 12 1.6 3.2 0.00 0.00 0.00 74 1004.5
20260506104003 17 8 0.0 3.2 0.00 0.00 0.00 74 1004.6
20260506103003 17 5 0.0 1.6 0.00 0.00 0.00 74 1004.5
20260506102003 18 6 0.0 3.2 0.00 0.00 0.00 72 1004.2
20260506101003 17 7 0.0 8.0 0.00 0.00 0.00 71 1004.0
20260506100214 17 0 0.0 0.0 0.00 0.00 0.00 72 1004.2
20260506095003 17 74 0.0 1.6 0.00 0.00 0.00 71 1004.3
20260506094003 17 0 0.0 0.0 0.00 0.00 0.00 72 1004.3
20260506093003 17 100 0.0 1.6 0.00 0.00 0.00 73 1004.5
20260506092003 17 100 0.0 3.2 0.00 0.00 0.00 74 1004.4
20260506091003 16 107 0.0 4.8 0.00 0.00 0.00 74 1004.3
20260506090214 17 112 0.0 4.8 0.00 0.00 0.00 73 1004.4
20260506085214 17 125 0.0 4.8 0.00 0.00 0.00 73 1004.4
20260506084003 17 0 0.0 0.0 0.00 0.00 0.00 70 1004.5
20260506083003 17 0 0.0 0.0 0.00 0.00 0.00 70 1004.4
20260506082003 17 0 0.0 0.0 0.00 0.00 0.00 69 1004.6
20260506081003 17 0 0.0 0.0 0.00 0.00 0.00 69 1004.5
20260506073003 17 0 0.0 0.0 0.00 0.00 0.00 71 1004.3
20260506072003 17 0 0.0 0.0 0.00 0.00 0.00 71 1004.6
20260506071003 16 60 0.0 1.6 0.00 0.00 0.00 72 1004.6
20260506070213 16 60 0.0 3.2 0.00 0.00 0.00 73 1004.9
20260506062213 15 60 0.0 3.2 0.00 0.00 0.00 81 1005.2
20260506061003 13 0 0.0 0.0 0.00 0.00 0.00 86 1005.3
20260506051003 11 0 0.0 0.0 0.00 0.00 0.00 92 1005.9
20260506045003 11 0 0.0 0.0 0.00 0.00 0.00 91 1006.0
20260506044003 12 0 0.0 0.0 0.00 0.00 0.00 91 1005.9
20260506043214 12 0 0.0 0.0 0.00 0.00 0.00 91 1005.8
20260506042003 12 0 0.0 0.0 0.00 0.00 0.00 90 1005.9
20260506041003 12 0 0.0 0.0 0.00 0.00 0.00 90 1006.1
20260506040004 12 0 0.0 0.0 0.00 0.00 0.00 90 1006.1
20260506035214 12 0 0.0 0.0 0.00 0.00 0.00 90 1006.0
20260506034003 13 0 0.0 0.0 0.00 0.00 0.00 89 1006.2
20260506033214 13 0 0.0 0.0 0.00 0.00 0.00 89 1006.2
20260506032003 13 0 0.0 0.0 0.00 0.00 0.00 88 1006.2